カタログに戻る

STARLINK-36751

運用中通信SSO
NORAD 67729·PAYLOAD·🇺🇸 United States

打ち上げ Feb 11, 2026 から Vandenberg Space Force Base

Loading…

次のパス (今後24時間)

TLE

最新Source: CelesTrak SupGP

元期: Sep 15, 2026, 03:00 UTC

1 67729C 26026J   26258.12548611  .00012608  00000+0  39135-3 0  2586
2 67729  97.2846 310.0190 0001061  81.1568 359.7268 15.33435645    10

AllMySatでSTARLINK-36751をリアルタイム追跡

Download on the App Store